THORAD AGENA D DEB, 42534

Orbit data source: Space-Track

THORAD AGENA D DEB, 42534 is space debris in SSO originally from a launch on Wed, 08 Apr 1970 UTC launched from the Air Force Western Test Range (AFWTR). Debris objects in space refer to the collection of defunct objects orbiting the Earth. Examples of debris include non-operational satellites, rocket bodies, and fragments generated from explosions, collisions, or faulty payload assembly.

Loading next visibility...
THORAD AGENA D DEB details
Identifier
42534, 1970-025SQ
Orbit
SSO
Last TLE update12 hours ago
Origin
Flag of USNASA LeRC (US)
ManufacturerUnknown
MissionSpacecraft
Bus & MotorUnknown
MassUnknown
Launch date (UTC)
1970-04-08 (55 years ago)
Launch vehicleUnknown
Launch site
Air Force Western Test Range (AFWTR)
Object type
Payload
Rocket body
Debris
Shape & HBRUnknown
Radar Cross SectionSmall (<0.1 m²)

Expand to show TLE details & history

TLE from 12 hours ago
0 THORAD AGENA D DEB
1 42534U 70025SQ  24361.11944814 -.00000095  00000-0 -14570-3 0  9996
2 42534 101.7593  59.0702 0194520 135.8473 225.8335 12.95404747518657
Epoch: 2024-12-26T02:52Z
Definitive object data (Epoch: 2024-12-26T02:52:00.319Z)
Latitude0.00001°
Longitude-79.03455°
Altitude1,388.057 km
Speed7.116 km/s
True Right ascension03h 56m 16s
True Declination0° 00' 00"
Sunlit
Object was in full shadow at TLE epoch
Visualization TLE readout
Latitude9.83097°
Longitude103.55633°
Altitude1,159.201 km
Speed7.332 km/s
Apparent Right ascension18h 33m 51s
Apparent Declination-35° 36' 15"
Sunlit
Object is in daylight
Visualization observer readout
Local Sidereal Time14:12:45
Azimuth131.99° SE
Elevation-6.473°
Doppler factor1
Orbital elements
Apogee altitude1,426.555 km
Perigee altitude1,128.715 km
Semi-major axis7,655.772 km
Eccentricity0.019452
Inclination101.7593°
RAAN59.0702°
Arg. of periapsis135.8473°
True anomaly224.26142°
Mean anomaly225.8335°
Eccentric anomaly225.0448°
Mean motion3.24011 °/min
BSTAR-0.0001457
Orbital period111.11 mins
Loading maneuver chart data...

THORAD AGENA D DEB Visibility forecast

Observer location: undefined°, undefined

Span
Click to sort rows by Start time (UTC) header in descending order
Start Az.
Max El. time (UTC)
Max El. Az.
Max El.
End time (UTC)
End Az.
12 mins2024-12-26 16:27:51.185Z32.776° NE2024-12-26 16:33:51.185Z109.931° ESE35.143°2024-12-26 16:39:51.185Z173.058° S
10 mins2024-12-26 18:17:51.185Z353.439° N2024-12-26 18:22:51.185Z294.517° NW28.037°2024-12-26 18:27:51.185Z242.047° WSW
12 mins2024-12-27 03:05:51.185Z130.665° SE2024-12-27 03:11:51.185Z57.969° ENE36.418°2024-12-27 03:17:51.185Z355.669° N
11 mins2024-12-27 04:55:51.185Z206.267° SW2024-12-27 05:00:51.185Z260.834° W29.746°2024-12-27 05:06:51.185Z321.684° NNW
|